RH
8 8 8 7 7 7 7 7 7 7 7 8 8 10 11 14 17 22 29 36 44 51 58 63 67 70 72 72 73 74 71 68 66 65 66 68 69 70 70 68 66 65 64 64 63 62 63 64 62 61 60 59 59 59 60 60 58 55 53 53 55 57 60 59 53 48 47 48 47 48 48 48 47 47 46 44 42 40 39 37 36 34 32 30 29
4 4 4 3 3 4 3 3 3 3 3 3 3 4 4 4 5 7 10 16 23 34 45 56 68 77 85 89 90 90 88 87 86 84 83 84 86 87 87 86 86 84 83 84 83 82 85 86 85 83 82 81 80 79 78 76 75 71 70 72 73 72 74 76 72 63 59 57 55 56 58 59 58 56 55 54 53 52 50 47 46 44 41 39 37
3 3 3 3 3 3 3 3 3 3 3 3 3 4 4 4 4 4 4 5 7 11 17 26 38 52 69 84 94 99 100 100 98 96 96 96 98 99 99 98 97 96 94 95 95 95 96 98 98 97 96 97 97 96 95 93 91 90 90 91 91 90 90 91 91 85 76 71 67 65 66 69 72 70 67 66 68 67 62 59 58 57 53 49 47
4 4 4 4 4 4 4 4 4 4 4 4 4 4 5 5 5 5 5 5 5 5 5 7 10 16 26 39 55 71 85 94 99 101 102 101 100 100 100 101 101 101 100 100 99 99 99 100 101 101 100 100 100 100 101 101 100 100 100 100 99 99 100 100 100 100 94 86 82 78 75 74 79 84 84 83 80 77 74 73 70 68 65 61 58
5 5 5 5 6 5 6 6 6 6 6 6 6 6 6 6 7 7 7 7 7 7 7 7 7 7 8 10 15 24 37 51 64 77 88 95 98 100 100 100 99 99 99 100 100 101 101 100 101 101 101 100 100 100 100 100 100 100 100 101 100 100 101 101 100 102 101 97 93 90 87 84 83 87 93 97 95 89 85 84 80 77 76 73 70
7 7 7 7 7 7 7 7 7 8 7 7 7 8 8 8 8 9 9 9 9 9 9 9 10 9 9 9 9 10 11 15 20 29 40 52 63 73 81 88 92 94 95 95 96 97 98 99 100 101 101 101 100 100 101 100 101 101 100 100 100 100 100 101 100 100 101 100 98 95 94 93 91 92 95 97 99 100 98 94 90 87 86 84 82
8 8 9 9 9 9 9 9 9 9 9 9 8 9 9 9 9 10 10 10 11 11 11 11 12 12 12 12 12 12 12 12 12 12 13 16 20 27 36 45 54 64 72 79 84 88 91 92 94 96 97 98 98 98 100 100 100 100 101 101 101 101 100 101 100 100 100 100 100 99 97 95 94 95 98 97 97 101 102 101 99 98 94 91 91
9 10 10 10 10 11 10 11 11 11 11 11 10 10 10 10 10 10 11 11 12 12 12 13 13 13 14 14 14 14 14 14 14 14 13 13 13 13 14 16 20 25 32 41 50 60 70 77 82 86 89 91 92 94 95 96 97 98 98 99 100 100 101 102 101 101 101 101 101 101 100 99 97 95 96 97 97 97 100 102 102 102 101 98 95
9 9 9 10 11 11 11 12 13 13 13 13 13 13 13 13 13 13 13 13 13 14 14 15 15 15 15 15 15 15 15 15 15 15 15 16 15 15 15 15 15 15 15 17 20 25 34 43 52 61 68 75 80 84 87 89 91 93 95 96 97 97 98 99 99 99 100 101 102 102 101 101 100 99 96 95 94 92 94 100 103 103 102 102 100
7 8 9 9 10 11 11 12 14 15 16 16 16 16 16 17 17 17 17 17 17 18 18 18 18 18 18 18 18 17 17 17 17 17 17 17 17 17 17 17 17 17 17 17 16 16 16 19 23 28 35 43 52 61 70 76 81 84 88 90 92 94 95 96 96 96 96 97 99 100 101 101 102 102 100 97 94 90 87 92 99 103 103 102 101
8 8 8 9 10 11 12 13 14 16 18 19 19 19 20 21 21 21 22 22 22 22 23 23 23 22 22 21 21 20 20 19 19 19 18 18 18 18 19 19 19 19 19 19 19 18 18 18 18 18 19 21 25 31 39 49 58 66 73 77 81 85 87 89 91 92 93 94 94 94 95 98 100 100 100 99 97 92 87 85 90 98 102 102 101
9 9 10 10 11 12 13 15 16 17 19 21 22 22 23 25 26 26 27 27 27 28 27 27 27 27 26 25 25 23 22 22 21 21 20 20 20 20 20 20 20 20 20 20 20 20 20 20 20 20 21 21 20 21 22 25 30 37 45 53 61 67 72 75 78 81 84 87 89 91 91 92 94 94 95 96 95 93 89 85 85 88 93 98 101
11 11 11 12 13 14 15 17 18 19 21 23 25 26 27 29 31 31 33 34 33 33 33 32 32 31 30 29 28 27 26 25 24 23 22 22 21 21 21 21 21 21 21 21 22 22 22 22 22 22 22 24 25 25 25 24 23 24 25 28 33 39 47 55 60 64 69 72 76 79 83 86 88 89 90 90 90 90 88 85 84 84 84 88 94
13 13 14 14 15 16 18 20 22 22 24 26 29 31 32 34 36 36 38 39 38 38 37 36 36 35 35 34 33 32 31 29 28 27 26 25 24 23 23 23 23 23 23 23 23 23 23 23 22 22 23 24 26 28 30 30 29 29 28 27 25 23 24 29 35 42 48 55 60 63 67 71 76 81 84 86 86 86 85 83 82 82 81 81 85
16 16 17 17 17 19 21 24 26 27 29 31 34 37 38 39 40 40 41 42 42 42 41 40 40 40 40 40 39 37 36 34 32 31 29 28 27 26 25 25 25 25 24 25 25 25 25 24 24 23 24 26 29 33 36 36 36 36 36 36 34 30 25 21 19 22 27 34 42 48 53 57 61 65 70 74 78 80 82 82 80 78 78 77 78
21 21 21 22 23 24 26 28 31 35 38 40 44 46 47 47 45 44 44 44 45 45 45 45 45 45 45 46 45 44 41 38 36 34 33 32 30 29 28 27 27 26 26 26 27 27 26 26 25 25 26 29 33 38 43 45 45 44 45 46 45 41 35 29 24 20 20 23 28 33 38 43 49 53 56 59 63 67 71 74 76 75 74 74 74
27 28 28 29 30 30 31 33 36 41 46 50 54 56 56 55 53 49 47 47 48 48 48 48 48 48 49 50 51 50 48 44 41 38 36 35 33 32 30 30 29 28 29 29 30 30 29 28 27 28 30 33 39 45 51 54 54 53 54 57 57 53 45 39 33 27 26 27 28 30 32 35 39 43 46 48 50 53 55 59 62 65 67 68 69
33 34 34 35 36 36 37 38 40 43 47 51 56 59 60 61 61 57 52 49 49 49 49 49 50 51 53 55 57 57 54 49 45 42 40 37 36 35 33 32 32 32 33 35 35 35 33 32 31 32 36 41 47 55 61 63 62 60 61 65 67 65 58 49 42 37 34 35 37 38 39 38 39 39 40 42 44 45 46 48 49 51 54 57 59
36 38 38 39 39 40 40 41 42 43 45 48 52 56 59 62 65 64 59 53 50 50 51 51 52 53 56 59 61 61 60 55 50 46 43 40 39 38 37 36 36 38 41 44 45 44 41 38 37 38 43 49 57 65 71 71 68 65 66 71 75 75 71 63 55 48 44 44 46 49 51 51 50 49 47 46 45 45 45 45 45 45 45 46 48
39 40 41 41 42 42 43 43 43 45 46 48 51 55 57 60 63 65 63 59 54 52 52 53 53 55 58 62 64 65 64 60 55 51 47 44 42 42 42 43 45 49 52 55 58 57 53 48 46 48 53 60 68 76 80 77 73 70 71 75 80 82 81 76 70 63 57 54 53 56 60 63 64 64 62 61 58 56 53 51 50 49 48 45 43
43 43 44 45 46 46 47 47 47 48 50 53 56 58 60 61 62 63 64 63 59 55 54 54 54 56 59 64 67 68 68 64 60 55 50 47 48 49 51 54 59 64 68 71 73 73 69 63 61 62 66 73 80 87 89 84 77 75 76 80 84 86 88 87 84 80 75 69 65 63 66 70 73 75 76 77 76 74 70 67 64 62 59 56 52
47 49 50 51 51 51 52 53 54 56 59 62 63 61 61 62 63 65 66 66 63 58 57 56 56 57 60 65 70 72 71 69 64 58 53 53 56 61 66 71 77 82 84 86 88 89 86 81 77 78 80 84 90 95 94 89 83 81 81 83 86 87 90 93 93 91 89 85 80 76 75 77 78 80 84 87 88 88 86 83 80 77 74 72 69
52 55 56 56 56 56 57 59 61 64 67 68 66 65 64 66 68 71 72 72 67 62 59 58 58 59 62 68 74 76 75 72 68 62 59 63 71 79 86 91 95 98 98 97 98 99 99 98 95 93 93 94 96 99 97 93 89 87 87 87 88 87 88 91 94 94 92 90 88 87 85 84 82 81 82 85 87 90 91 90 89 88 85 83 83
57 59 60 61 62 62 63 65 67 71 75 75 73 72 74 76 79 80 79 74 68 63 61 62 63 63 66 72 79 82 80 76 71 67 70 79 89 95 99 101 102 104 104 103 103 102 101 102 103 103 103 103 103 103 102 98 93 90 90 91 92 91 90 90 91 91 91 89 89 90 89 88 84 81 78 78 77 77 79 80 82 85 86 86 87
60 62 63 64 66 67 68 71 76 83 89 89 89 90 91 91 89 84 78 72 67 64 64 66 67 69 74 80 86 88 85 79 75 77 86 95 100 101 101 101 101 102 102 102 102 101 100 100 102 102 103 104 105 107 107 103 97 91 90 91 93 93 92 91 89 88 87 87 87 86 85 84 83 81 79 78 76 72 69 67 67 68 71 72 75
64 65 66 68 69 70 73 80 90 98 100 99 101 103 102 97 88 78 73 70 68 69 72 75 77 80 83 86 91 93 92 89 88 92 98 101 101 101 101 100 100 100 100 100 100 100 100 100 101 100 100 101 102 104 106 106 102 97 93 92 92 92 91 91 90 87 86 85 83 81 78 77 76 75 75 76 76 75 72 69 65 62 60 59 58
67 67 69 70 72 75 84 94 100 101 101 102 103 100 93 83 76 72 72 73 77 82 87 88 88 88 90 94 99 102 101 100 100 100 101 101 100 101 100 100 100 100 100 100 100 100 100 101 101 100 100 101 100 100 102 103 102 100 98 96 93 92 91 90 89 87 86 83 80 78 75 73 71 70 69 69 71 72 73 72 70 67 64 60 56
68 70 72 74 79 88 97 102 102 101 101 98 92 83 75 72 73 76 80 84 88 92 93 93 93 95 98 101 102 103 102 102 101 100 100 100 100 100 100 100 100 100 100 100 100 100 100 100 100 101 101 101 101 101 101 102 100 99 98 96 94 92 90 90 89 88 86 84 83 81 78 74 71 68 67 66 66 66 66 66 66 66 64 62 59
72 74 77 83 91 100 105 104 101 96 89 82 77 75 76 80 82 83 83 83 84 87 91 95 98 100 102 102 101 101 100 101 101 100 100 101 100 100 100 100 100 100 100 100 100 100 100 100 101 101 101 101 102 102 101 101 99 98 97 95 91 88 87 88 88 86 85 85 85 83 80 76 72 69 67 64 62 60 59 58 58 57 57 56 55
76 80 86 94 100 101 100 94 87 81 78 78 81 82 80 77 73 71 71 74 80 89 96 101 102 100 100 101 101 100 100 100 100 100 100 100 100 100 100 100 100 100 100 100 100 100 100 100 100 101 101 101 101 101 101 100 98 96 95 92 89 87 87 86 85 84 83 82 80 78 75 71 67 64 61 58 55 53 51 50 49 47 47 47 47
81 85 87 87 84 79 76 75 75 78 81 80 75 68 61 57 57 62 70 79 90 99 103 103 101 99 99 101 101 100 100 100 100 100 100 100 100 100 100 100 100 100 100 100 100 100 100 100 100 100 101 100 100 100 100 100 98 96 93 88 85 84 84 84 83 83 82 79 76 74 70 66 62 58 55 51 47 45 43 41 40 40 39 39 38
80 76 70 65 61 60 65 73 79 78 70 59 49 43 40 40 44 51 60 71 84 95 102 103 101 100 100 101 100 100 100 100 100 100 100 100 100 100 100 100 100 100 100 100 100 100 100 100 100 100 100 100 100 100 100 100 100 99 97 90 83 81 81 81 80 79 76 73 71 69 67 64 60 56 52 49 45 42 40 38 36 34 33 33 33
67 61 56 53 55 61 71 75 70 57 44 34 27 24 22 21 23 27 34 47 64 82 95 101 101 100 100 101 100 100 100 100 100 100 100 100 100 100 100 100 100 100 100 100 100 100 100 100 100 100 100 100 100 100 100 100 100 100 101 96 88 85 84 81 78 75 71 68 65 62 60 58 55 52 49 46 44 42 41 41 39 36 34 32 31
56 52 51 55 63 69 69 60 45 31 22 16 13 12 12 13 14 16 22 34 50 69 85 95 100 101 100 100 100 100 100 100 100 100 100 100 100 100 100 100 100 100 100 100 100 100 100 100 100 100 100 100 100 100 100 100 100 100 101 98 91 89 87 82 78 75 71 67 64 60 56 52 50 48 46 44 45 45 45 46 45 43 39 36 33
53 54 59 67 70 63 49 34 22 14 11 10 11 12 12 14 15 16 20 27 38 55 72 85 96 102 101 100 100 100 100 100 100 100 100 100 100 100 100 100 100 100 100 100 100 100 100 100 100 100 100 100 100 100 100 100 100 100 101 99 95 92 89 84 79 76 72 68 64 59 54 50 47 46 47 49 50 51 51 49 46 43 40 37 33
61 64 67 64 54 39 25 16 11 9 10 11 12 12 13 15 16 17 20 23 32 49 66 79 93 102 101 100 100 100 100 100 100 100 100 100 100 100 100 100 100 100 100 100 100 100 100 100 100 100 100 100 100 100 100 100 101 102 103 101 97 93 88 84 80 76 71 67 62 57 52 50 50 52 55 56 55 53 49 45 42 40 37 34 31
61 58 51 40 29 20 13 10 9 10 12 12 12 12 13 15 16 18 20 27 41 57 71 85 97 102 100 100 100 100 100 100 100 100 100 100 100 100 100 100 100 100 100 100 100 100 100 100 100 100 100 100 100 100 100 101 102 104 104 100 95 90 86 82 78 73 69 65 61 57 56 58 60 60 60 58 56 53 48 43 41 40 38 36 34
44 37 30 24 18 12 9 9 11 12 12 12 11 12 13 14 16 18 21 31 44 58 77 94 102 101 100 100 100 100 100 100 100 100 100 100 100 100 100 100 100 100 100 100 100 100 100 100 100 100 100 100 100 100 101 103 104 105 104 100 93 87 82 78 74 70 67 64 62 64 68 69 66 63 62 61 61 60 54 49 46 44 41 38 36
29 25 21 16 11 9 10 12 13 12 12 11 11 11 12 13 15 17 21 30 43 62 86 101 102 100 100 101 100 100 100 100 100 100 100 100 100 100 100 100 100 100 100 100 100 100 100 100 100 100 100 100 101 102 104 106 106 106 106 102 93 85 79 74 71 69 66 66 68 72 75 73 68 67 67 68 67 65 60 55 52 47 42 40 42
22 19 15 11 9 10 12 12 12 12 11 10 10 11 11 12 13 16 25 39 58 81 98 102 100 100 100 100 100 100 100 100 100 100 100 100 100 100 100 100 100 100 100 100 100 100 100 100 100 100 100 102 104 105 106 107 107 108 109 102 91 82 76 73 71 70 69 71 75 76 75 73 73 73 73 71 69 67 65 59 52 49 49 52 56
18 15 11 9 9 11 12 12 12 11 10 9 9 10 10 10 12 18 33 56 80 97 101 100 100 101 100 100 100 100 100 100 100 100 100 100 100 100 100 100 100 100 100 100 100 100 100 100 100 101 103 105 105 104 105 108 110 110 108 99 87 79 76 74 72 71 72 75 76 75 73 75 76 76 75 73 71 70 68 61 57 60 63 63 58
14 11 9 8 10 12 12 12 11 10 9 9 9 9 9 9 13 24 45 71 92 101 101 99 100 100 100 100 100 100 100 100 100 100 100 100 100 100 100 100 100 100 100 100 100 100 100 101 102 104 105 105 104 103 105 108 109 106 101 93 84 79 78 75 72 72 75 77 75 73 74 76 77 77 77 76 74 73 73 72 73 73 67 59 53
12 9 8 9 12 12 12 12 11 9 9 10 10 9 9 11 20 38 63 86 99 101 100 100 100 100 100 100 100 100 101 100 100 100 100 100 100 100 100 100 100 100 100 100 101 100 100 101 104 105 105 104 104 105 105 105 103 100 95 89 85 83 81 78 75 76 79 78 75 73 73 74 76 77 77 75 74 77 83 87 86 79 66 57 53
10 8 9 12 13 12 12 12 10 9 10 11 11 10 10 15 28 48 71 90 99 100 99 100 100 100 100 100 100 100 100 100 100 100 100 100 100 100 100 100 100 98 97 97 98 99 98 100 102 104 105 106 105 106 106 104 102 98 94 90 88 87 86 84 82 82 82 80 77 75 73 75 77 77 74 73 75 82 90 93 89 79 69 60 53
8 9 11 13 13 12 12 12 10 10 11 12 12 11 12 19 31 47 67 84 93 97 100 100 100 100 100 100 100 100 100 100 100 99 99 99 98 98 99 100 98 96 94 94 97 99 99 100 100 100 102 105 105 105 106 105 101 97 94 91 89 88 89 89 86 85 84 81 78 75 75 76 76 73 72 73 77 84 90 92 88 79 69 60 53
8 10 13 13 13 13 13 12 11 10 12 14 14 13 15 19 29 44 61 76 87 94 98 99 99 101 101 101 101 101 100 99 98 96 96 95 95 96 98 100 99 97 95 96 98 99 98 96 94 95 97 100 103 105 106 103 99 97 95 93 90 90 91 90 88 87 86 82 78 77 77 74 70 69 70 72 76 82 87 89 86 77 67 59 52
9 12 14 14 14 14 14 13 12 11 13 16 17 17 17 20 26 37 50 63 74 83 88 90 92 94 94 95 96 96 96 96 96 95 95 95 96 97 99 101 99 95 94 95 95 95 95 91 90 92 95 97 101 104 103 100 98 97 95 93 91 90 91 90 90 89 86 81 80 81 81 76 70 68 68 70 73 78 83 86 84 76 66 58 53
10 13 15 14 14 15 15 14 14 13 14 17 19 21 21 22 25 30 39 49 59 67 73 77 81 85 87 90 91 92 94 95 96 96 96 97 97 98 99 101 98 92 91 92 93 94 93 87 86 89 90 93 99 102 99 95 95 95 95 94 93 92 93 94 94 92 86 83 86 89 89 86 81 77 75 74 75 76 78 83 83 75 66 58 53
12 14 15 15 16 16 16 16 16 16 16 18 21 23 25 26 26 28 32 39 46 52 57 62 68 73 76 80 83 85 87 89 90 92 95 96 96 95 95 97 97 91 86 85 87 89 88 83 82 85 85 86 92 98 97 94 94 94 94 95 96 98 101 103 102 97 91 88 90 91 91 92 92 91 88 86 83 80 80 82 81 74 65 58 54
13 16 16 16 17 17 17 17 18 18 19 20 21 24 26 29 31 31 33 35 39 42 45 49 53 57 60 64 68 71 73 75 78 81 85 89 91 89 85 86 90 91 89 85 84 85 85 81 80 83 84 83 86 92 96 98 100 98 95 95 98 102 106 107 104 99 96 94 91 86 84 86 89 93 95 94 91 88 85 86 84 74 63 58 57
14 16 17 18 19 19 19 19 19 19 21 22 24 26 28 30 33 35 37 39 40 42 44 46 49 51 53 56 60 63 66 69 72 74 77 83 89 93 93 89 88 90 92 90 85 81 78 74 70 69 70 70 73 80 89 96 100 100 95 94 98 104 108 107 100 95 97 99 96 91 86 82 82 87 93 95 94 91 91 92 89 77 63 57 61
Wind_Speed
57 57 58 59 59 60 60 61 62 62 63 64 65 66 67 67 68 69 70 71 71 72 73 73 74 75 76 76 77 78 79 80 80 81 81 81 81 82 82 83 83 83 83 84 84 84 84 84 85 85 85 85 84 84 84 84 84 84 84 84 84 83 83 84 85 85 85 84 83 83 82 82 82 82 82 82 82 82 82 82 82 82 82 82 82
55 55 56 56 57 57 58 58 59 60 60 61 62 62 63 64 65 66 67 68 69 70 71 72 73 73 74 75 76 77 78 79 80 81 81 81 81 81 81 82 82 82 82 82 82 82 82 82 83 83 83 83 83 83 83 83 83 83 82 82 82 82 82 83 84 84 84 84 83 83 82 82 82 82 82 82 82 82 82 82 82 82 82 82 82
51 51 52 52 53 53 53 54 55 55 56 57 57 58 59 59 60 61 62 63 65 66 68 69 71 72 73 73 74 74 75 76 77 78 79 79 80 80 80 81 81 82 82 82 82 81 80 80 80 81 81 81 81 81 82 82 82 81 81 81 81 81 82 82 83 83 83 84 84 83 82 81 81 82 82 81 82 82 82 82 82 82 82 83 83
44 45 45 46 47 47 48 49 49 50 51 51 52 53 53 54 55 56 57 57 59 60 61 63 65 67 69 71 72 74 75 76 76 77 77 78 78 78 79 80 80 80 81 81 81 81 80 79 79 79 79 79 79 80 80 81 81 81 81 81 81 81 81 81 82 83 83 84 84 83 83 83 82 81 81 81 83 83 82 82 82 83 83 83 83
39 40 41 41 42 43 43 44 45 46 47 47 48 48 48 49 49 50 51 52 52 53 54 55 57 58 60 62 65 67 70 73 75 76 78 78 79 79 79 79 80 79 79 79 79 79 79 78 78 78 78 78 78 78 78 79 79 80 80 80 81 81 80 80 80 81 82 83 84 84 84 84 83 83 82 81 82 83 83 84 83 83 83 83 83
39 39 40 40 40 41 41 42 43 44 45 45 45 45 45 45 46 46 46 47 48 49 50 51 52 53 54 55 57 58 60 63 66 68 71 74 76 78 79 80 81 81 81 80 80 80 79 78 78 78 78 78 78 77 77 77 77 78 78 79 79 80 80 79 79 79 80 81 83 84 84 84 84 84 84 83 82 82 83 84 84 84 84 84 84
39 40 40 41 41 41 42 42 43 43 44 45 45 45 45 45 46 46 46 47 48 49 49 50 51 51 52 53 54 55 56 57 59 60 62 64 67 69 72 75 78 80 81 82 82 82 81 81 81 80 80 80 79 79 78 78 78 78 78 78 78 78 79 79 79 79 79 79 81 82 83 84 85 85 85 85 84 82 82 83 84 86 86 85 85
40 41 41 41 42 42 43 43 44 44 45 46 47 47 47 47 47 48 48 49 50 50 51 52 52 53 54 55 55 56 57 58 58 59 60 61 62 64 65 68 71 73 76 78 80 82 83 83 83 83 83 83 82 82 81 81 80 80 79 79 79 79 79 79 79 79 79 79 80 81 82 83 85 86 86 87 87 85 83 82 83 84 86 87 87
40 41 42 42 43 43 44 45 45 46 47 48 49 49 50 50 50 50 51 51 52 53 53 54 55 55 56 57 58 58 59 60 60 61 62 63 64 64 66 67 68 70 71 72 74 76 79 81 83 84 85 85 85 85 85 84 83 83 82 82 81 81 81 81 81 81 80 80 80 80 81 82 83 85 86 88 88 88 86 84 83 82 83 85 87
41 42 43 44 44 45 45 46 47 48 49 50 51 51 52 52 52 52 53 53 54 55 56 56 57 58 58 59 60 61 61 62 62 63 64 65 65 66 67 69 70 71 71 72 72 73 74 76 78 81 83 85 87 87 88 88 87 86 85 85 84 84 84 83 83 83 83 83 82 82 82 82 82 83 85 86 88 89 89 88 87 85 83 82 84
43 44 45 46 46 47 48 49 49 50 51 52 53 53 54 54 54 55 55 55 56 56 57 58 58 59 60 61 61 62 63 63 64 65 65 66 66 67 68 70 71 72 72 73 73 73 74 75 76 77 79 81 83 85 87 89 90 90 89 89 88 87 87 86 85 85 85 85 85 85 85 84 84 84 85 86 87 88 89 90 89 89 86 84 83
46 47 47 48 48 49 50 51 52 52 53 54 55 56 56 56 57 57 57 58 58 58 58 58 59 60 60 61 62 63 64 64 65 65 66 66 67 67 69 71 72 72 73 73 74 74 74 75 75 76 77 78 79 80 82 84 86 88 90 91 92 92 91 90 89 88 88 88 87 88 88 87 87 87 87 87 87 88 89 90 90 91 89 87 85
47 48 49 50 51 51 52 52 53 54 55 56 56 57 58 58 59 59 59 60 60 60 60 60 60 61 61 62 63 64 65 65 66 66 67 67 67 68 69 71 72 72 73 73 74 74 74 75 75 75 76 77 77 78 79 80 81 83 85 87 89 91 93 93 93 92 92 91 91 90 90 90 90 90 89 89 89 89 90 90 90 91 91 89 88
49 50 51 52 53 53 54 54 55 57 57 57 58 58 59 60 61 61 61 62 62 62 62 62 62 63 63 64 64 65 66 66 67 67 68 68 68 68 69 71 72 72 73 73 74 74 74 74 75 75 75 75 76 76 77 77 78 79 80 81 83 85 87 89 91 93 93 94 93 93 92 92 92 92 92 91 91 91 91 91 91 92 92 91 89
51 52 53 54 55 55 56 56 57 58 59 60 60 60 61 62 62 63 63 64 64 65 65 65 65 65 66 66 66 66 67 68 68 69 69 70 69 69 70 71 72 72 72 73 73 74 74 74 74 74 74 75 75 75 75 75 76 76 77 77 78 80 81 82 84 86 89 91 92 93 93 93 93 93 93 92 93 93 93 93 93 93 93 92 91
54 55 55 56 57 58 58 58 59 60 61 62 62 61 62 63 63 64 65 65 66 67 68 68 67 68 68 68 68 68 69 69 69 70 70 71 71 70 71 71 72 72 72 73 73 73 73 73 73 73 73 74 74 74 73 74 74 74 74 75 75 76 77 77 78 79 81 83 86 88 90 92 92 93 93 92 93 93 93 94 94 94 94 94 93
56 57 58 59 60 60 61 61 61 62 63 63 63 63 64 64 65 65 66 66 67 68 69 69 69 69 69 70 70 70 71 71 71 71 71 72 72 72 72 72 72 72 72 72 72 72 72 72 71 72 72 72 72 72 72 72 72 73 73 73 73 74 74 74 75 75 76 77 79 81 83 85 88 90 91 92 92 93 93 94 94 95 96 96 95
57 58 60 61 62 63 63 63 64 64 65 65 65 65 65 65 66 66 67 67 68 68 69 71 71 71 71 72 72 72 73 73 72 72 73 73 73 73 73 73 73 72 72 72 71 71 71 71 70 70 71 71 71 71 71 71 71 71 71 71 71 72 72 72 73 73 73 74 74 75 76 78 80 83 85 87 89 91 92 93 94 95 96 97 97
59 60 61 62 63 64 65 65 66 66 67 67 67 67 67 67 66 66 67 67 68 68 70 72 73 72 73 73 74 74 74 74 74 74 74 74 74 74 74 73 73 72 71 71 70 70 70 69 69 69 69 69 69 69 69 69 69 70 70 70 70 70 70 70 70 71 72 72 72 72 72 73 74 76 77 79 82 84 87 89 91 93 95 96 98
61 62 63 64 65 66 67 68 68 69 70 69 69 69 69 69 68 68 67 67 68 69 71 73 74 74 74 75 75 76 76 76 76 75 75 75 75 75 74 74 73 71 71 70 69 69 68 68 68 68 68 68 67 67 68 68 68 68 68 68 68 68 68 68 69 69 70 70 70 70 70 71 71 72 72 74 75 77 79 82 84 87 90 93 96
63 64 65 66 67 68 69 70 72 72 73 73 73 72 72 71 70 70 69 69 69 70 71 73 75 75 75 75 77 77 77 77 77 76 76 76 76 75 74 73 72 71 70 69 68 67 67 67 66 66 66 66 66 66 66 66 67 67 67 67 67 67 66 67 67 68 68 69 69 69 69 70 70 70 70 71 72 72 74 75 77 79 82 86 90
66 67 68 69 70 70 72 73 75 76 76 76 76 76 75 74 72 71 70 70 69 70 71 73 75 76 75 76 77 78 78 78 77 77 77 77 76 75 74 72 71 70 69 67 67 66 66 66 65 65 65 64 64 64 64 65 65 65 65 65 65 65 65 65 66 66 67 68 68 68 69 69 70 70 70 70 71 71 72 73 73 75 76 78 81
68 69 70 71 72 74 75 76 77 78 79 80 79 79 77 76 74 72 71 70 70 71 72 74 76 77 76 76 78 78 78 78 78 77 77 77 76 74 73 71 69 68 67 66 66 65 65 65 65 64 64 63 63 63 63 63 64 64 64 64 64 64 64 64 64 65 65 66 66 67 68 69 70 70 70 71 72 72 73 73 74 74 75 75 77
70 71 72 74 75 77 79 80 81 82 83 84 83 81 80 77 76 74 72 71 72 72 73 75 76 78 78 77 78 79 78 78 77 77 76 76 74 73 71 70 68 67 66 65 65 65 64 64 64 64 63 63 63 62 62 63 63 63 63 63 63 62 62 63 63 64 64 65 65 65 66 68 69 70 70 72 73 74 74 75 75 76 76 76 77
72 73 75 77 79 81 83 85 86 88 88 88 86 84 82 80 79 77 75 74 74 75 76 77 78 79 79 78 79 79 78 78 77 76 75 74 73 71 70 68 67 66 65 64 64 64 63 63 63 63 63 62 62 62 62 62 62 62 62 62 62 62 62 62 62 63 64 64 64 65 66 67 68 69 70 71 72 73 74 75 75 76 77 78 79
74 75 78 80 82 84 85 87 88 89 89 88 87 86 85 84 83 81 80 79 79 79 79 80 81 82 81 80 79 79 78 77 76 75 73 72 71 69 68 67 66 65 64 63 63 63 63 62 62 62 62 62 62 62 62 62 62 61 61 61 61 62 61 62 62 62 63 64 64 65 66 67 68 69 70 71 72 73 74 74 75 76 77 78 79
76 77 79 81 84 85 87 88 88 88 88 87 87 87 87 87 86 86 85 85 84 84 84 84 84 83 82 80 79 78 77 76 75 73 71 70 69 67 66 66 65 64 63 62 62 62 62 62 61 61 61 61 61 62 62 62 62 61 61 61 61 61 61 62 62 62 63 64 64 65 66 67 68 69 70 71 72 73 74 75 75 76 77 78 78
77 79 81 83 85 86 88 88 88 87 86 87 88 88 89 89 90 89 89 89 88 88 87 87 86 84 81 79 78 76 75 74 73 71 70 68 67 66 65 64 63 62 62 62 61 61 61 61 61 61 61 61 61 61 62 62 62 61 61 61 61 61 61 61 62 62 63 64 64 65 66 67 68 69 70 71 72 73 74 75 76 77 78 79 79
79 81 83 85 87 88 89 89 89 88 88 89 90 91 92 93 93 93 92 91 90 89 88 86 84 82 80 78 77 75 74 72 71 69 68 66 65 64 63 62 61 61 61 60 60 60 60 60 60 61 61 61 61 61 61 62 62 62 62 62 62 61 61 61 61 62 62 63 64 65 66 67 68 69 69 70 71 73 74 75 76 77 79 79 80
81 83 85 87 89 90 91 92 92 92 93 94 95 96 96 96 95 93 92 90 88 87 85 84 83 80 78 77 76 74 71 70 68 67 66 64 63 62 61 61 60 60 59 59 59 59 59 59 60 60 60 60 60 61 62 62 62 62 62 62 62 62 61 61 61 62 62 63 64 65 66 67 68 69 70 72 73 74 75 75 76 78 79 80 81
83 85 87 89 91 93 94 96 97 98 98 99 99 99 98 96 93 91 89 87 85 84 83 82 81 79 77 75 74 71 69 67 66 64 63 62 61 60 60 60 59 59 58 58 58 58 58 59 59 59 59 60 61 61 62 62 63 63 63 63 62 62 62 62 62 62 63 63 64 65 66 67 69 70 71 73 74 75 77 77 78 79 80 81 82
84 87 89 92 94 96 98 99 100 101 102 102 101 99 96 93 90 88 86 85 83 82 81 80 78 76 74 72 70 68 66 64 63 61 60 60 59 58 58 58 58 57 57 57 57 58 58 58 59 59 59 60 61 62 62 63 63 64 64 64 63 62 62 62 63 63 64 64 65 65 66 68 69 70 71 72 73 75 76 77 79 79 80 81 82
87 90 93 95 97 99 101 102 103 103 103 102 99 96 93 90 87 85 83 82 80 79 78 77 75 73 70 69 67 65 63 61 60 59 58 57 57 57 57 57 56 56 56 56 56 57 58 58 59 59 59 59 60 62 62 63 63 64 65 65 64 63 63 63 63 64 64 65 66 66 67 68 69 70 70 71 72 72 73 75 76 78 79 79 80
90 93 96 98 101 102 103 104 105 104 101 98 94 91 89 86 84 82 80 78 76 75 74 73 71 69 67 66 64 62 60 58 57 56 56 55 55 55 55 55 55 55 55 55 56 57 57 58 58 58 58 59 60 61 62 62 63 64 65 65 65 63 63 63 63 63 64 64 65 66 67 67 68 68 69 69 70 70 70 71 72 73 75 76 77
93 96 99 101 103 105 106 106 105 101 97 94 91 89 87 84 81 79 76 75 73 72 70 69 67 66 64 63 61 60 58 56 55 54 53 53 53 53 53 54 54 54 54 54 55 56 56 57 57 57 57 57 59 60 61 61 62 63 64 64 63 63 62 62 62 62 63 63 64 65 66 66 66 66 66 66 67 67 68 68 69 70 71 72 73
96 99 102 104 105 107 107 105 101 97 94 93 92 90 88 84 80 77 74 73 71 69 67 65 64 63 61 60 58 57 55 53 52 52 51 51 51 51 52 52 52 52 53 54 54 55 55 56 56 56 56 56 58 59 60 60 61 62 63 63 62 61 61 61 61 61 61 62 63 64 64 63 62 61 61 62 63 64 65 66 66 67 68 68 68
98 100 102 105 107 108 105 100 96 94 93 93 92 90 86 82 78 74 72 70 67 66 64 62 61 59 58 57 55 53 51 50 50 49 49 49 49 50 50 51 51 51 52 53 53 54 54 55 55 55 55 55 56 58 59 59 60 61 62 62 61 60 60 60 60 60 60 61 61 61 60 59 58 57 58 59 60 62 63 63 64 64 65 65 64
99 101 104 107 107 104 100 96 94 94 94 94 92 88 83 79 75 71 68 66 64 62 60 58 56 55 54 52 51 49 48 48 47 47 47 48 48 49 49 50 50 50 51 52 52 52 53 53 54 54 54 54 55 56 57 58 58 60 61 62 60 60 59 59 59 59 59 59 58 56 55 55 55 55 56 56 58 60 61 61 61 62 62 61 60
100 104 107 107 104 99 95 94 94 94 94 93 90 85 80 76 71 67 64 62 60 57 55 52 51 50 49 48 47 46 45 45 45 45 45 46 46 47 48 48 49 49 49 50 51 51 51 52 52 53 53 53 53 54 56 56 57 58 60 61 60 59 59 59 59 58 57 55 53 51 52 53 54 53 53 54 55 57 58 58 58 59 58 56 54
103 106 106 102 97 94 93 93 94 94 93 90 85 81 76 72 67 62 59 56 53 50 48 47 46 46 45 44 43 42 42 42 43 43 44 44 45 46 47 47 48 48 48 48 49 49 50 50 51 51 51 52 52 52 53 54 55 57 59 60 60 59 59 58 57 56 53 51 49 50 51 51 51 51 51 52 52 53 55 56 55 54 52 51 51
104 104 101 96 92 91 91 93 93 93 91 87 81 76 72 66 61 56 52 49 46 44 43 42 42 42 41 41 40 40 40 40 41 41 42 43 44 45 46 46 46 47 47 47 48 48 48 48 49 50 50 51 51 51 51 52 54 56 58 59 60 59 58 57 54 52 50 48 48 49 49 49 49 49 49 49 50 51 52 53 51 49 49 49 50
102 100 96 92 89 89 90 91 92 91 87 82 77 72 66 60 54 50 46 43 41 40 39 38 38 38 38 38 38 38 38 39 39 40 41 42 43 44 44 45 45 45 45 46 46 47 47 47 47 48 48 49 50 50 50 51 53 55 57 58 58 57 56 55 53 50 49 48 48 47 47 47 47 46 46 47 47 48 49 48 47 48 49 49 48
100 96 92 89 88 88 89 90 90 87 82 77 72 67 61 55 49 44 41 39 38 37 36 36 36 35 35 35 36 36 37 38 38 39 40 40 42 42 43 43 44 44 44 44 45 45 45 45 45 46 47 48 48 48 49 51 52 54 55 55 55 55 55 54 52 49 48 48 47 46 46 45 45 44 44 44 44 44 44 44 46 48 49 48 47
97 92 88 87 86 87 88 88 86 82 76 72 67 62 56 51 45 41 38 36 35 34 34 34 34 34 34 34 34 35 36 37 37 38 39 39 40 41 41 42 42 42 42 43 43 43 44 43 43 44 45 46 47 47 48 50 51 52 53 53 53 53 53 53 51 49 48 47 46 45 45 44 44 43 43 42 41 40 40 42 44 47 48 48 47
93 88 85 84 84 85 85 85 82 77 72 68 64 59 54 49 44 41 38 36 35 34 34 33 33 33 33 33 34 35 35 36 37 37 38 39 39 40 40 41 41 41 41 41 41 42 42 42 42 42 43 44 45 46 47 48 49 50 51 51 51 51 51 51 49 48 48 47 46 45 44 44 44 43 41 39 37 37 37 39 41 44 46 47 45
88 83 81 81 81 82 82 81 78 73 69 65 61 57 53 48 44 41 38 37 35 34 34 34 33 33 33 33 33 34 35 36 36 37 37 38 38 38 38 39 39 40 39 39 39 40 40 40 41 41 41 42 43 44 45 46 47 48 49 49 49 49 48 48 47 46 46 46 45 44 44 45 44 42 39 37 35 34 35 36 38 41 43 44 43
83 80 79 78 78 79 78 77 75 71 67 63 60 56 53 49 45 42 39 38 36 35 34 34 34 34 34 34 34 35 35 36 36 36 36 36 36 36 36 37 37 37 37 37 38 38 39 40 40 40 40 40 41 42 43 44 45 45 45 46 46 45 45 44 44 44 44 43 42 42 43 44 44 42 39 37 34 33 33 33 35 38 41 41 40
80 77 76 75 75 75 75 75 73 70 66 62 59 56 53 50 46 43 41 39 37 36 35 35 34 34 34 34 34 34 34 34 34 34 34 34 34 34 34 35 36 36 36 36 37 38 39 39 39 38 38 38 38 39 41 41 42 42 43 43 43 43 42 41 42 42 42 40 39 40 42 43 44 43 41 39 35 32 31 31 32 35 37 39 38
77 74 72 71 72 72 73 73 71 69 66 62 59 56 53 51 48 45 42 40 38 36 35 35 34 33 33 33 33 33 32 32 32 32 32 33 33 33 33 34 35 36 36 36 37 37 38 38 37 37 37 37 37 38 39 40 41 41 42 42 42 41 40 40 41 41 40 38 38 39 40 42 43 43 43 41 38 35 33 32 31 32 34 35 36
74 71 69 69 69 70 70 70 70 68 66 62 59 57 54 51 49 46 44 42 40 38 37 36 34 34 33 33 33 33 32 32 32 32 32 32 33 34 34 34 34 35 35 36 36 37 37 37 37 36 37 37 37 37 38 39 40 41 42 42 41 40 39 40 41 40 39 37 37 38 38 39 41 42 42 42 39 36 34 33 32 31 31 33 33
71 68 66 66 67 67 68 68 67 66 65 62 60 57 54 52 50 48 46 44 42 40 39 38 36 35 35 34 33 33 33 33 33 32 32 32 32 33 35 35 34 34 34 35 37 37 38 38 37 37 36 36 36 36 36 37 38 39 40 40 39 38 39 40 41 39 38 37 37 37 37 37 38 39 40 40 38 36 34 33 32 32 31 31 31
Wind_Direction
291 291 291 290 290 289 289 288 287 287 286 285 285 284 283 282 282 281 280 280 279 279 278 277 277 277 277 276 276 276 275 274 274 273 273 273 272 272 272 271 271 270 270 270 269 269 269 268 267 267 266 266 265 264 264 263 263 262 262 261 260 260 259 259 259 258 258 257 257 257 256 256 256 255 255 255 255 255 255 254 254 255 255 255 255
293 293 293 293 292 292 292 291 290 290 289 288 287 286 285 284 284 283 282 281 280 280 279 278 278 277 277 277 276 276 276 275 275 274 274 273 273 272 272 271 271 270 270 269 269 269 269 268 268 267 267 266 265 265 264 263 263 262 261 261 260 259 259 259 259 258 257 257 256 255 255 255 255 254 254 254 254 253 253 253 253 253 254 254 254
298 298 298 298 298 297 297 296 295 294 293 292 291 290 289 288 287 286 285 284 283 282 281 280 279 279 278 277 277 277 276 276 275 275 274 273 273 272 272 271 271 270 269 269 268 268 268 268 267 267 266 266 265 265 264 263 263 262 261 261 260 260 259 259 258 258 257 257 256 255 254 253 253 253 253 253 252 252 252 252 252 252 252 253 253
309 309 308 308 307 306 305 304 303 302 301 300 299 298 296 295 294 293 292 290 289 288 287 285 284 282 281 280 279 278 277 277 276 276 275 274 274 273 272 272 271 270 270 269 269 268 267 267 267 266 265 265 264 264 263 263 262 262 261 260 260 260 259 259 259 258 258 257 256 255 254 253 252 252 252 252 252 252 251 251 251 251 252 252 252
320 320 319 319 317 316 315 314 312 311 309 308 306 305 304 303 301 300 299 297 296 295 294 292 291 289 288 286 284 283 281 280 279 278 277 276 275 275 274 274 273 272 271 270 270 269 268 268 267 266 266 265 264 264 263 263 262 262 261 260 260 259 259 258 259 258 258 257 256 255 254 254 252 251 251 251 252 252 252 251 251 251 251 251 252
324 323 323 322 322 321 320 318 317 315 313 312 311 309 308 307 306 304 303 302 301 300 299 297 296 295 294 292 291 289 288 286 284 282 281 279 278 277 277 276 275 274 273 272 271 271 270 269 269 268 267 266 266 265 264 263 263 262 262 261 260 259 258 258 257 258 258 257 256 255 254 253 252 252 251 249 250 251 251 252 251 251 251 251 251
323 322 322 321 320 319 318 317 316 315 314 313 312 311 310 308 307 306 305 304 303 303 302 301 300 299 298 297 296 295 293 292 291 290 288 286 284 282 281 280 278 277 276 274 273 273 272 271 271 270 269 269 268 267 266 266 265 264 263 262 261 260 259 258 257 257 258 257 256 255 254 253 252 251 251 250 248 248 250 251 251 251 251 251 251
324 323 322 322 320 319 318 317 315 314 312 311 310 310 309 308 307 306 305 304 304 303 303 302 301 301 300 299 298 298 297 296 295 294 293 291 290 288 286 285 283 281 279 278 276 275 274 273 272 271 271 270 269 268 268 267 267 266 265 264 263 262 261 260 258 258 258 258 258 257 255 254 253 252 251 250 249 247 247 249 250 250 251 251 251
325 324 324 323 322 320 319 318 316 314 313 311 310 309 308 308 307 306 305 304 303 303 302 302 301 301 300 300 299 299 298 298 297 296 295 294 293 292 290 289 287 286 284 282 280 278 277 275 274 273 272 271 270 269 269 268 267 267 267 266 266 265 264 262 261 260 259 258 259 259 258 256 255 254 252 251 250 248 246 246 248 249 249 250 251
325 325 324 323 322 321 320 319 317 316 314 312 311 310 309 309 308 307 306 304 304 303 302 302 301 301 300 300 299 298 298 297 297 296 295 294 294 293 291 290 289 288 286 285 283 282 280 278 277 275 274 273 272 271 270 269 268 267 266 266 266 266 265 265 264 263 262 261 260 260 260 259 258 256 255 253 251 249 247 245 245 246 247 248 249
324 324 323 322 322 321 320 319 317 316 314 313 312 311 311 310 309 308 307 306 305 304 303 302 302 301 300 299 299 297 297 296 295 295 294 293 293 292 291 290 289 289 288 287 285 284 283 281 279 278 277 275 274 273 271 270 269 268 267 266 266 265 265 265 264 264 263 263 262 261 261 261 261 260 258 257 255 252 250 247 246 245 245 245 247
324 323 322 321 320 320 319 318 317 315 314 313 312 311 311 310 309 309 308 307 306 305 304 304 302 302 301 300 298 297 296 295 294 294 293 293 292 292 291 290 290 289 288 287 286 285 284 283 282 280 279 278 276 275 274 272 271 270 269 268 267 266 266 265 265 264 264 263 263 262 262 261 261 261 260 260 259 256 254 251 249 248 246 245 245
323 322 321 320 319 319 319 318 316 315 314 313 312 311 311 310 309 309 309 308 307 306 305 304 303 302 301 300 299 298 297 296 295 294 293 292 292 291 291 290 290 289 288 288 287 286 285 284 283 282 280 279 278 276 275 274 273 272 271 269 269 268 267 266 266 265 265 264 264 263 263 262 262 261 261 261 260 259 258 255 252 251 249 247 246
322 321 320 319 319 319 318 318 316 315 314 313 313 312 311 310 309 309 308 307 307 306 305 304 303 303 302 301 301 300 299 298 296 295 294 293 292 292 291 290 290 289 289 288 287 286 285 284 284 283 282 280 279 277 276 275 274 273 272 271 270 269 268 267 267 266 266 265 265 265 264 264 263 263 262 261 261 260 260 258 256 254 252 250 248
321 320 319 319 318 318 318 318 317 315 315 314 314 313 311 309 308 307 307 306 306 306 305 304 304 304 303 303 302 301 300 299 298 296 295 294 293 292 291 291 290 290 289 288 287 286 285 285 284 283 283 282 280 279 277 276 275 274 273 273 272 271 270 269 268 267 267 266 266 265 265 265 265 264 264 263 262 261 260 259 258 256 255 253 251
321 320 319 318 318 318 318 318 317 317 316 315 315 313 311 309 307 306 305 305 305 305 304 304 304 304 304 303 303 302 301 300 299 297 296 295 294 293 292 291 290 290 289 288 287 286 285 284 284 284 283 282 281 280 278 277 276 275 275 274 273 272 271 270 270 269 268 267 266 266 265 265 265 264 264 264 264 263 262 261 260 258 256 254 253
321 320 319 318 318 318 318 318 318 317 317 316 315 313 311 309 307 305 304 304 304 304 304 304 304 304 303 303 303 302 301 300 299 298 297 296 295 293 292 291 291 290 289 288 287 286 285 284 284 284 283 282 281 280 279 278 277 276 276 275 274 273 272 271 270 270 269 268 267 267 266 265 264 264 264 264 264 264 263 263 262 261 259 256 254
320 319 318 318 318 318 318 317 317 316 315 315 314 312 311 309 307 305 303 302 302 302 302 302 302 302 302 302 302 302 301 300 299 298 297 296 295 294 293 292 291 290 290 289 287 286 285 284 284 283 283 282 281 280 279 278 278 277 276 275 274 273 272 271 270 270 269 269 268 267 267 266 265 265 264 264 263 263 263 263 262 262 261 260 257
320 318 318 317 317 317 317 316 315 314 313 313 312 311 310 308 306 304 302 300 299 299 299 299 300 301 301 301 301 301 301 300 299 298 297 296 295 294 293 292 291 291 290 289 288 286 284 283 283 283 282 282 281 280 279 278 278 277 277 276 274 273 272 271 270 269 269 268 268 268 267 267 266 266 265 264 264 263 262 262 262 262 261 261 260
319 318 317 317 317 316 315 314 314 313 312 311 311 310 309 307 306 304 301 299 298 297 297 297 298 299 299 299 300 300 300 299 298 297 296 295 294 293 293 292 291 291 290 289 288 286 285 283 283 282 282 281 280 279 279 278 278 278 277 276 275 274 272 271 270 269 269 268 267 267 267 267 266 266 266 265 264 264 263 262 262 261 261 261 260
318 317 317 317 317 316 315 314 313 312 311 311 310 309 308 307 306 304 301 299 297 296 296 296 297 297 298 298 299 299 298 298 297 296 295 294 294 293 292 292 291 291 290 289 288 287 285 284 283 282 281 281 280 279 278 278 278 278 277 276 275 274 273 272 271 270 269 268 268 267 267 267 267 266 266 265 265 264 264 263 262 261 261 260 259
319 318 318 317 317 316 315 314 313 312 312 311 310 309 308 307 305 303 301 299 297 296 295 295 295 296 296 297 297 297 297 296 295 295 294 293 293 292 292 291 291 290 290 289 288 287 286 284 283 282 281 280 280 279 278 278 278 278 277 276 275 275 274 273 272 271 270 269 268 268 267 266 266 266 266 265 265 264 264 263 263 262 261 260 260
319 318 318 317 317 316 315 314 313 312 311 310 310 309 308 307 306 304 302 299 298 296 296 295 295 295 296 296 296 296 295 294 294 293 293 292 292 292 291 291 290 290 290 289 288 288 286 285 283 282 282 281 280 279 278 278 278 277 277 276 275 274 274 273 272 271 271 270 269 268 267 266 266 266 265 265 264 264 263 263 262 262 261 260 260
319 319 318 318 317 317 316 315 314 313 312 311 311 310 309 308 306 305 303 301 299 297 296 296 295 295 295 295 295 294 293 293 292 292 291 291 291 291 291 290 290 290 289 289 288 287 286 285 283 282 282 281 280 279 278 278 277 277 276 276 275 274 274 273 272 272 271 271 270 269 268 267 267 266 265 265 264 263 263 262 262 261 261 260 260
320 319 319 319 318 318 317 316 315 315 314 314 313 312 311 309 308 307 304 302 300 299 297 296 295 295 295 295 294 293 292 291 291 290 290 290 290 290 290 289 289 289 288 288 287 287 286 284 283 282 281 281 280 280 279 278 278 277 276 276 275 275 274 273 272 272 272 271 271 270 269 269 268 267 266 265 265 264 263 262 262 261 261 260 260
321 320 320 319 318 318 317 316 316 316 315 314 313 312 311 310 309 307 306 304 302 300 298 297 296 295 295 295 293 292 291 291 290 290 290 290 290 289 289 288 288 288 287 287 287 286 286 284 282 281 281 280 280 279 279 278 278 277 277 276 275 275 274 274 273 273 273 272 272 271 270 270 269 268 267 266 265 264 264 263 263 262 261 261 260
321 320 319 318 317 317 316 316 316 315 314 313 312 311 310 309 308 307 306 304 302 301 299 298 297 296 296 295 293 292 292 291 290 290 290 289 289 288 288 288 287 287 286 286 286 286 285 284 283 282 281 281 280 279 279 278 278 278 278 277 276 276 275 275 275 274 274 273 273 272 271 271 270 269 268 268 267 266 265 264 263 263 262 261 260
320 319 318 317 317 316 316 316 315 314 313 312 311 310 309 308 307 306 305 303 302 301 299 298 297 297 296 295 293 292 292 291 290 290 290 289 288 288 287 287 286 285 285 284 285 285 284 283 283 282 282 281 281 280 279 279 279 279 278 278 277 277 276 276 276 275 275 275 274 273 273 272 271 271 270 269 268 267 266 265 264 263 263 262 261
320 319 318 317 317 316 316 315 315 313 312 311 310 309 308 307 307 305 304 303 301 300 299 298 297 296 295 294 293 292 291 291 291 291 290 289 288 288 287 286 285 284 284 284 284 284 284 283 283 282 282 282 281 280 280 279 279 279 279 278 278 277 277 277 277 276 276 276 274 274 273 273 272 271 271 270 269 268 267 266 266 265 264 263 262
319 318 318 317 317 316 316 315 314 313 313 312 311 310 309 307 306 305 303 302 300 299 298 297 296 295 294 293 293 292 292 291 291 291 290 289 288 288 287 286 284 284 283 283 284 284 284 283 283 282 282 281 281 280 280 279 279 279 278 278 278 278 278 278 278 278 277 277 276 275 275 274 273 273 272 271 270 269 269 268 267 266 265 264 263
319 318 318 317 317 316 316 315 315 315 314 313 312 310 309 308 306 304 303 301 300 298 297 296 295 294 294 293 293 292 292 292 292 291 290 289 288 287 286 285 284 283 283 284 284 284 284 283 283 282 282 281 281 280 280 280 280 279 279 279 278 278 278 278 278 278 277 277 277 277 277 276 276 275 274 273 272 271 270 269 267 266 265 265 264
319 319 318 318 318 317 317 316 316 315 314 313 312 311 309 308 306 304 303 301 299 298 296 295 294 294 294 293 293 293 293 293 292 291 290 289 288 286 285 284 284 284 284 284 284 284 284 283 283 282 281 281 280 280 280 280 280 280 280 279 279 278 278 278 278 277 277 277 276 276 276 276 276 276 275 274 274 273 272 270 269 267 266 265 264
320 320 320 319 318 318 317 317 317 316 315 314 312 311 310 308 307 305 303 301 300 298 296 295 295 294 294 293 293 293 293 293 292 290 289 288 287 286 285 284 284 284 284 284 284 284 284 283 283 282 281 281 281 280 280 280 280 280 280 280 280 280 279 279 278 278 277 277 276 276 276 276 276 276 275 275 274 273 272 270 269 268 267 266 265
321 321 320 320 319 318 318 318 318 317 315 314 313 312 311 309 308 306 304 301 299 297 296 295 295 294 294 293 293 294 293 292 291 289 288 288 287 286 285 285 284 284 284 284 284 284 284 284 283 283 282 282 281 281 281 281 281 280 280 280 281 281 280 280 280 279 279 278 278 277 277 276 276 276 276 275 273 272 270 269 268 268 267 266 266
322 322 321 320 319 319 319 319 318 317 317 316 315 314 312 310 308 306 303 301 299 297 296 295 295 294 294 294 294 294 292 291 290 289 288 287 286 285 285 284 284 284 284 284 284 284 284 284 283 283 283 283 282 282 282 282 282 281 281 281 282 282 282 282 281 281 281 281 280 279 279 278 277 277 276 274 273 271 269 268 267 267 266 266 265
323 322 321 320 320 320 320 320 320 319 319 318 317 315 313 311 308 305 303 301 299 298 297 296 296 296 296 295 294 293 292 290 289 289 288 287 286 285 285 285 284 285 284 284 284 284 284 284 283 283 283 283 283 283 283 283 283 283 282 282 283 283 283 283 283 283 283 282 282 281 281 280 279 277 275 273 272 270 269 268 268 267 266 266 265
323 322 321 320 321 322 322 322 321 321 321 319 318 316 314 312 309 306 303 302 300 298 297 297 297 296 296 294 293 292 291 290 289 288 287 287 286 286 285 285 285 285 285 285 285 284 284 284 284 284 284 284 284 283 283 283 284 284 284 283 283 284 284 284 284 284 284 283 283 283 282 281 278 276 274 273 273 272 271 270 270 269 268 267 266
323 322 322 322 323 324 324 324 323 323 322 320 319 317 315 312 309 306 304 302 300 299 298 298 297 295 294 293 292 290 290 289 289 288 287 287 286 286 286 286 286 285 285 285 285 285 285 284 284 284 284 284 284 284 284 284 285 285 285 285 285 285 285 285 285 285 284 284 284 283 282 279 278 276 276 275 274 274 273 272 271 270 268 267 267
324 323 324 325 325 326 326 325 325 324 323 321 320 318 316 313 310 307 304 301 300 300 299 298 296 294 293 292 291 291 290 290 290 289 288 287 287 287 287 287 287 287 287 286 286 286 286 286 286 285 285 285 284 284 285 285 286 286 286 286 286 286 286 286 285 285 285 284 284 282 280 278 278 277 276 275 275 275 274 272 271 270 269 269 268
325 325 326 327 327 327 327 326 326 325 324 323 322 320 318 315 312 308 305 303 302 300 299 296 295 293 292 292 292 292 291 291 290 289 289 288 288 288 288 288 288 288 288 287 287 287 287 287 287 286 286 286 285 285 286 286 286 286 286 286 287 287 287 286 286 285 285 284 283 280 278 278 277 277 276 275 275 274 273 271 271 271 271 270 268
327 327 328 328 329 329 328 328 328 327 326 326 325 323 321 318 315 311 308 306 303 301 298 296 295 294 294 294 294 293 292 291 291 290 290 290 289 289 289 289 289 289 289 289 289 288 288 288 288 287 287 287 287 287 287 287 286 286 286 287 287 287 287 286 286 286 285 284 281 279 278 278 277 277 277 276 275 273 272 272 273 272 270 268 266
328 328 329 330 331 331 330 330 330 329 329 329 328 327 325 323 320 317 314 310 306 303 300 299 298 297 297 297 296 295 295 294 293 293 293 292 292 291 291 291 291 291 291 290 290 289 289 289 289 289 288 288 288 288 288 287 286 286 286 287 287 288 287 287 287 287 286 283 281 280 279 277 277 277 276 275 274 273 273 274 273 271 269 267 268
329 330 332 332 333 333 333 333 333 333 333 333 332 331 330 328 326 324 321 317 312 309 306 305 303 302 301 300 299 298 297 296 296 296 295 294 294 294 294 293 293 293 292 292 291 291 291 290 290 290 289 289 289 289 288 288 287 287 287 287 288 289 288 288 289 288 286 283 282 281 279 278 278 277 275 273 272 271 272 271 271 270 271 271 271
331 333 334 335 335 336 336 336 336 336 337 337 336 336 335 334 332 330 327 324 319 316 314 311 309 307 305 304 303 302 301 300 299 298 297 297 296 296 296 295 295 295 294 294 293 293 292 292 291 291 290 290 290 290 289 289 288 288 288 288 288 289 289 289 289 288 286 284 283 281 280 279 278 276 274 273 271 270 269 267 268 270 272 273 274
334 336 336 337 338 339 339 339 340 340 341 341 341 342 341 340 339 337 334 331 327 324 321 317 315 313 311 310 308 306 305 304 303 302 301 300 300 299 299 298 298 297 297 296 296 295 294 293 292 292 291 291 291 291 290 289 288 288 288 289 289 289 289 289 289 288 287 286 284 282 280 278 276 274 273 272 270 268 266 265 267 270 272 273 274
336 337 338 339 341 341 342 343 344 345 345 346 346 347 347 346 345 343 341 337 334 330 327 324 321 319 317 315 313 311 309 307 306 305 305 304 303 303 302 301 301 300 300 299 298 296 295 295 294 294 293 292 292 291 290 289 289 289 289 289 289 290 290 290 290 289 288 287 286 284 282 278 276 275 274 272 270 267 265 265 267 269 271 273 273
338 339 340 342 343 344 345 347 348 349 350 350 351 352 352 352 350 348 346 343 339 335 332 329 326 323 321 319 317 315 313 312 311 310 310 309 308 307 306 305 304 303 303 302 300 299 298 297 297 296 296 295 294 293 291 290 290 290 290 290 290 290 290 291 291 290 289 289 289 288 285 282 280 278 277 275 272 269 266 266 267 269 270 271 271
340 341 342 344 345 347 348 350 352 353 354 354 355 356 356 356 355 353 351 348 344 341 338 335 333 330 327 325 323 321 320 318 317 316 315 314 313 311 310 308 307 306 306 304 303 301 300 300 300 299 297 296 295 294 292 292 292 291 290 290 290 291 291 291 291 290 290 291 292 290 287 286 284 283 281 279 277 274 270 268 267 268 269 269 269
341 343 344 346 347 349 351 353 355 356 357 358 359 359 359 359 359 357 355 353 350 346 344 342 339 337 334 332 330 328 326 324 323 322 320 319 317 315 313 311 310 310 309 308 306 305 304 303 303 302 301 299 298 296 295 295 294 293 292 291 291 292 291 290 288 288 289 290 289 287 285 285 283 282 280 280 280 278 275 272 270 269 269 269 269
343 344 346 347 349 350 353 355 357 359 360 0 1 2 2 2 2 1 360 358 355 352 350 348 345 343 340 338 336 334 332 330 328 327 325 323 321 319 317 316 315 314 313 311 310 308 306 305 305 303 302 301 300 298 297 297 295 294 293 292 292 291 290 287 285 285 286 285 283 283 283 283 281 279 277 277 277 277 276 274 273 272 269 268 269
344 345 346 348 349 351 353 356 358 0 2 2 3 3 3 4 4 3 3 2 0 359 357 355 352 350 348 345 343 341 338 336 334 332 331 329 327 324 322 321 320 318 316 314 312 311 310 309 309 307 305 303 301 300 299 297 295 294 293 292 292 291 289 286 284 283 283 282 280 280 281 281 281 279 276 274 273 274 274 273 274 273 270 268 268